270  
ASUS44 KMEG 290310  
RWRMEG  
MEMPHIS CWA HOURLY WEATHER ROUNDUP  
NATIONAL WEATHER SERVICE MEMPHIS TN  
1000 PM CDT FRI APR 28 2017  
   
..WEST TENNESSEE
 
 
 
CITY SKY/WX TMP DP RH WIND PRES REMARKS
 
MEMPHIS INTL CLEAR 79 70 74 S12 29.84R  
NWS MEMPHIS N/A 79 N/A N/A MISG N/A  
JACKSON PTCLDY 79 69 71 S9 29.87R  
SOMERVILLE MOCLDY 79 70 73 S12 29.86R  
BOLIVAR MOCLDY 77 68 73 S10 29.88R  
LEXINGTON PTCLDY 79 68 69 S9G15 29.89R  
SAVANNAH MOCLDY 77 68 73 S9G15 29.91R  
DYERSBURG PTCLDY 79 71 76 S9 29.83R  
UNION CITY CLEAR 77 72 83 S14 29.81R  
HUNTINGDON CLOUDY 75 72 88 S7 29.86R  
 
   
..EASTERN ARKANSAS
 
 
 
CITY SKY/WX TMP DP RH WIND PRES REMARKS
 
JONESBORO PTCLDY 75 71 87 S5 29.80R  
WEST MEMPHIS PTCLDY 78 71 79 S16 29.81R  
BATESVILLE MOCLDY 70 68 94 CALM 29.80R  
NEWPORT PTCLDY 76 72 87 MISG 29.80R  
WALNUT RIDGE PTCLDY 70 64 83 NE5 29.80R  
BLYTHEVILLE PTCLDY 79 72 79 S13 29.81R  
SEARCY MOCLDY 77 73 87 S10 29.79R  
STUTTGART MOCLDY 79 64 61 SE9 29.79R  
PINE BLUFF CLEAR 79 72 79 SE13 29.78R  
MONTICELLO CLEAR 80 71 74 S8 29.80R  
 
   
..NORTH MISSISSIPPI
 
 
 
CITY SKY/WX TMP DP RH WIND PRES REMARKS
 
TUPELO CLEAR 79 67 66 SE12 29.92R  
OXFORD CLEAR 75 66 73 S8 29.91R  
BATESVILLE CLEAR 79 68 69 SE7 29.88R  
TUNICA PTCLDY 77 70 78 SE14 29.84R  
CLARKSDALE CLEAR 81 73 78 SE12 29.84R  
CORINTH CLEAR 79 66 65 S12 29.91R  
GREENWOOD CLEAR 80 71 74 S17G24 29.87R  
COLUMBUS CLEAR 78 71 80 S9 29.94R  
STARKVILLE CLEAR 77 68 73 S10G20 29.95R  
GOLDEN TRIANGL PTCLDY 79 66 65 S13 29.92R  
 
   
..SOUTHEAST MISSOURI
 
 
 
CITY SKY/WX TMP DP RH WIND PRES REMARKS
 
KENNETT MOCLDY 75 73 94 S5 29.79R FOG  
MALDEN PTCLDY 73 72 94 S8 29.80S  
WEST PLAINS CLOUDY 64 63 96 NE5 29.82R FOG  
POPLAR BLUFF PTCLDY 66 66 100 CALM 29.77F FOG  
CAPE GIRARDEAU TSTM 70 67 90 W9G25 29.79R FOG  
 
   
..NORTHWEST ALABAMA
 
 
 
CITY SKY/WX TMP DP RH WIND PRES REMARKS
 
MUSCLE SHOALS CLEAR 78 65 63 S9 29.97R  
 
   
..MIDDLE TENNESSEE
 
 
 
CITY SKY/WX TMP DP RH WIND PRES REMARKS
 
NASHVILLE CLEAR 77 67 71 S12 29.93R  
CLARKSVILLE PTCLDY 76 67 73 S10G17 29.87R  
COLUMBIA CLEAR 79 79 100 S12 29.93R  
 
   
..WESTERN KENTUCKY
 
 
 
CITY SKY/WX TMP DP RH WIND PRES REMARKS
 
PADUCAH PTCLDY 75 69 81 S5 29.79F  
FORT CAMPBELL CLOUDY 76 69 77 S10 29.85R  
 
   
..CENTRAL ARKANSAS
 
 
 
CITY SKY/WX TMP DP RH WIND PRES REMARKS
 
LITTLE ROCK CLOUDY 78 73 84 SE7 29.77R  
 
SKY/WX REPORTED AS FAIR MEANS FEW OR NO CLOUDS BELOW  
12 THOUSAND FEET.  
 
 
 
CLICK HERE TO GO TO PREVIOUS BULLETINS.

The Nexlab TN Page Main Text Page

The Nexlab TN Page
The Nexlab MS Page
The Nexlab AR Page Main Text Page